DW9771 Weather Reports


time (UTC)temp
F
wind
direction
speed
knots
gust
knots
rain 1hr
in
rain 24hr
in
rain mn
in
humidity
%
barometer
mb
20260505004600 56 190 0.9 6.1 0.00 0.00 0.00 87 1012.9
20260505003050 57 243 0.0 2.6 0.00 0.00 0.00 87 1012.9
20260505001544 56 202 0.9 4.3 0.00 0.00 0.00 87 1012.9
20260505000045 58 234 0.0 3.5 0.00 0.00 0.00 86 1013.0
20260504234543 57 190 0.9 4.3 0.00 0.00 0.00 85 1013.1
20260504233046 57 169 0.9 3.5 0.00 0.00 0.00 86 1013.2
20260504231605 57 230 0.9 3.5 0.00 0.00 0.00 86 1013.2
20260504230042 57 229 0.9 4.3 0.00 0.00 0.00 87 1013.1
20260504224543 57 232 2.6 6.1 0.00 0.00 0.00 86 1013.2
20260504223045 57 184 0.9 6.1 0.00 0.00 0.00 87 1013.2
20260504221603 58 203 1.7 4.3 0.00 0.00 0.00 86 1013.3
20260504220040 57 177 1.7 5.2 0.00 0.00 0.00 86 1013.3
20260504214539 57 192 2.6 6.1 0.00 0.00 0.00 86 1013.3
20260504213043 57 175 2.6 6.1 0.00 0.00 0.00 87 1013.3
20260504211537 57 216 2.6 7.8 0.00 0.00 0.00 87 1013.3
20260504210045 57 229 2.6 6.1 0.00 0.00 0.00 87 1013.2
20260504204537 57 205 2.6 6.1 0.00 0.00 0.00 87 1013.3
20260504203035 57 174 2.6 7.0 0.00 0.00 0.00 87 1013.4
20260504201534 57 236 2.6 6.1 0.00 0.00 0.00 87 1013.4
20260504200034 57 190 2.6 7.0 0.00 0.00 0.00 87 1013.5
20260504194532 57 143 3.5 7.0 0.00 0.00 0.00 86 1013.4
20260504193032 57 174 2.6 5.2 0.00 0.00 0.00 87 1013.3
20260504191552 56 229 3.5 8.7 0.00 0.00 0.00 87 1013.4
20260504190029 56 186 3.5 8.7 0.00 0.00 0.00 88 1013.3
20260504184540 56 232 3.5 7.0 0.00 0.00 0.00 89 1013.3
20260504183026 56 188 3.5 10.4 0.00 0.00 0.00 89 1013.3
20260504181526 56 193 3.5 10.4 0.00 0.00 0.00 90 1013.3
20260504180032 55 165 4.3 10.4 0.00 0.00 0.00 90 1013.1
20260504174523 55 190 5.2 11.3 0.00 0.00 0.00 91 1013.0
20260504173023 55 139 6.1 11.3 0.00 0.00 0.00 91 1013.0
20260504171522 55 200 6.1 12.2 0.00 0.00 0.00 91 1013.0
20260504081526 53 10 0.0 0.0 0.00 0.01 0.00 87 1008.8
20260504050012 59 326 3.5 7.8 0.00 0.01 0.01 76 1008.6
20260504044510 59 326 3.5 8.7 0.00 0.01 0.01 79 1008.5
20260504043011 59 348 4.3 8.7 0.00 0.01 0.01 79 1008.4
20260504041509 59 335 5.2 8.7 0.00 0.01 0.01 79 1008.4
20260504040009 60 287 4.3 8.7 0.00 0.01 0.01 77 1008.4
20260504034508 60 326 3.5 7.8 0.00 0.01 0.01 75 1008.3
20260504033007 61 333 4.3 8.7 0.00 0.01 0.01 73 1008.3
20260504031507 62 328 4.3 9.6 0.00 0.01 0.01 71 1008.3
20260504030007 64 21 5.2 9.6 0.00 0.01 0.01 66 1008.3
20260504024509 64 328 4.3 8.7 0.00 0.01 0.01 65 1008.4
20260504023005 64 340 4.3 8.7 0.00 0.01 0.01 66 1008.3
20260504021505 65 336 3.5 10.4 0.00 0.01 0.01 64 1008.3
20260504020004 66 350 6.1 12.2 0.00 0.01 0.01 59 1008.3
20260504014502 67 303 5.2 10.4 0.00 0.01 0.01 58 1008.5
20260504013001 66 278 5.2 13.0 0.00 0.01 0.01 59 1008.6
20260504011559 67 322 6.1 11.3 0.00 0.01 0.01 57 1008.7
20260504010058 67 3 7.8 13.9 0.00 0.01 0.01 53 1008.9